{"data":{"norad_id":87587,"intl_designator":"","name":"UNKNOWN","alt_names":[],"object_type":"UNKNOWN","status":"UNKNOWN","operator":null,"country":null,"launch_date":null,"launch_site_code":null,"launch_vehicle":null,"mission":null,"orbit_class":"UNKNOWN","rcs_meters":null,"size_class":null,"mass_kg":null,"dimensions":null,"purposes":[],"wikipedia_slug":null,"has_3d_model":false,"image_url":null,"decayed_at":null,"tle_current":{"epoch":"2026-09-15T21:22:50.096640Z","epoch_age_seconds":412672,"freshness":"STALE","line1":"1 87587U          26258.89085760  .00000106  00000+0  41854-4 0  9993","line2":"2 87587  74.0247 310.3219 0021768 278.9562  80.9129 14.40185234673707","mean_motion":14.40185234,"eccentricity":0.0021768,"inclination_deg":74.0247,"raan_deg":310.3219,"arg_perigee_deg":278.9562,"mean_anomaly_deg":80.9129,"bstar":4.1854e-5,"rev_number":67370,"period_min":99.987138182254,"perigee_km":742.35281257719,"apogee_km":773.42020452401,"semimajor_km":7136.0235085506,"source":"CELESTRAK","updated_at":"2026-09-20T09:00:32.476869Z"}}}